Station BRHC3 - 8467150 - Bridgeport, CT Image indicating link to RSS feed of recent meteorological observations for station BRHC3


Conditions at BRHC3 as of
(11:00 pm EDT on 06/20/2024)
0300 GMT on 06/21/2024:
     

Click on the graph icon in the table below to see a time series plot of the last five days of that observation.

5-day plot - Wind Direction Wind Direction (WDIR):SSW ( 210 deg true )
5-day plot - Wind Speed Wind Speed (WSPD):2.6 m/s
5-day plot - Wind Gust Wind Gust (GST):3.1 m/s
5-day plot - Atmospheric Pressure Atmospheric Pressure (PRES):1021.8 mb
5-day plot - Pressure Tendency Pressure Tendency (PTDY): +1.0 mb ( Rising )
5-day plot - Air Temperature Air Temperature (ATMP): 23.4 °C
5-day plot - Water Temperature Water Temperature (WTMP): 18.9 °C
5-day plot - Wind Speed at 10 Meters Wind Speed at 10 meters (WSPD10M): 3 m/s
5-day plot - Wind Speed at 20 Meters Wind Speed at 20 meters (WSPD20M): 3 m/s
5-day plot -  Wind Speed, Wind Gust and Atmospheric Pressure Combined plot of Wind Speed, Gust, and Air Pressure
NOS Water Level Observation Network Water Level
Previous observations
TIME
(EDT)
5-day plot - Wind Direction
WDIR
 
5-day plot - Wind Speed
WSPD
m/s
5-day plot - Wind Gust
GST
m/s
5-day plot - Wave Height
WVHT
m
5-day plot - Dominant Wave Period
DPD
sec
5-day plot - Average Wave Period
APD
sec
5-day plot - Mean Wave Direction
MWD
 
5-day plot - Atmospheric Pressure
PRES
mb
5-day plot - Pressure Tendency
PTDY
mb
5-day plot - Air Temperature
ATMP
°C
5-day plot - Water Temperature
WTMP
°C
5-day plot - Dew Point
DEWP
°C
5-day plot - Salinity
SAL
psu
5-day plot - Visibility
VIS
km
5-day plot - Tide (above MLLW)
TIDE
m
2024-06-20 10:54 pmSSW 2.1 2.6----1021.8- 23.5 19.1----
2024-06-20 10:48 pmSSW 2.1 3.1----1021.8- 23.6 18.6----
2024-06-20 10:42 pmSSW 2.1 3.1----1021.8- 23.7 18.7----
2024-06-20 10:36 pm SW 1.5 3.6----1021.8- 23.8 18.7----
2024-06-20 10:30 pmSSW 2.6 3.1----1021.8- 23.8 18.8----
2024-06-20 10:24 pmSSW 2.6 3.1----1021.8- 23.8 19.1----
2024-06-20 10:18 pm SW 2.1 3.6----1021.9- 24.0 19.0----
2024-06-20 10:12 pmSSW 2.6 3.6----1021.9- 24.1 19.0----
2024-06-20 10:06 pmSSW 2.6 3.6----1021.9- 24.1 18.7----
2024-06-20 10:00 pmSSW 2.1 3.6----1022.0 +1.1 23.8 19.3----
2024-06-20 09:54 pmSSW 2.6 4.1----1022.0- 24.0 18.7----
2024-06-20 09:48 pmSSW 2.6 3.6----1021.9- 24.1 18.8----
2024-06-20 09:42 pm SW 2.1 3.6----1021.8- 24.3 19.1----
2024-06-20 09:36 pmSSW 3.1 4.1----1021.8- 24.2 19.3----
2024-06-20 09:30 pmSSW 3.1 4.1----1021.7- 24.2 19.4----
2024-06-20 09:24 pmSSW 2.6 3.6----1021.7- 24.3 19.6----
2024-06-20 09:18 pmSSW 2.6 4.6----1021.6- 24.3 19.3----
2024-06-20 09:12 pmSSW 2.6 4.1----1021.5- 24.1 19.2----
2024-06-20 09:06 pmSSW 2.6 4.1----1021.4- 24.4 20.0----
2024-06-20 09:00 pmSSW 3.1 4.1----1021.3 +0.4 24.5 19.7----
2024-06-20 08:54 pm SW 2.6 4.1----1021.4- 24.6 19.7----
2024-06-20 08:48 pmSSW 2.6 3.6----1021.2- 24.7 19.8----
2024-06-20 08:42 pmSSW 2.6 3.6----1021.3- 24.9 20.0----
2024-06-20 08:36 pmSSW 2.6 3.6----1021.3- 24.9 19.9----
2024-06-20 08:30 pmSSW 2.1 3.1----1021.2- 25.1 19.7----
2024-06-20 08:24 pm SW 2.6 4.1----1021.1- 25.2 20.0----
2024-06-20 08:18 pm SW 2.6 4.6----1021.1- 25.3 20.3----
2024-06-20 08:12 pmSSW 3.6 5.1----1020.9- 25.3 19.8----
2024-06-20 08:06 pm SW 2.6 4.6----1020.9- 25.5 20.5----
2024-06-20 08:00 pmSSW 3.1 4.6----1020.8 -0.6 25.5 20.2----
2024-06-20 07:54 pm SW 3.6 4.6----1020.9- 25.6 20.2----
2024-06-20 07:48 pm SW 3.6 5.7----1020.9- 25.8 20.2----
2024-06-20 07:42 pm SW 3.1 5.7----1020.9- 26.0 20.2----
2024-06-20 07:36 pm SW 3.6 5.7----1020.9- 26.0 20.0----
2024-06-20 07:30 pm SW 4.1 6.2----1020.9- 26.1 20.3----
2024-06-20 07:24 pm SW 3.1 5.1----1020.9- 26.2 20.6----
2024-06-20 07:00 pmSSW 3.6 5.7----1020.9 -0.9 26.4 20.7----
2024-06-20 06:54 pm SW 4.1 7.2----1020.9- 26.6 20.2----
2024-06-20 06:48 pmSSW 4.6 6.7----1020.9- 26.4 20.6----
2024-06-20 06:42 pmSSW 4.6 7.2----1020.8- 26.4 20.4----
2024-06-20 06:36 pmSSW 4.6 7.7----1020.9- 26.3 20.4----
2024-06-20 06:30 pm SW 4.6 6.2----1020.9-- 21.0----
2024-06-20 06:24 pm SW 5.1 6.7----1020.9-- 20.4----
2024-06-20 06:18 pmSSW 5.7 7.2----1020.9-------
2024-06-20 06:12 pmSSW 5.7 7.2----1020.9-------
2024-06-20 06:06 pmSSW 5.7 7.2----1020.9-------
2024-06-20 06:00 pmSSW 5.1 7.7----1020.9 -1.6 27.5 21.0----
2024-06-20 05:54 pmSSW 5.1 7.7----1021.1- 27.8 20.7----
2024-06-20 05:48 pmSSW 4.6 6.2----1021.1- 27.8 21.0----
2024-06-20 05:42 pm SW 4.6 6.2----1021.2- 28.0 20.7----
2024-06-20 05:36 pmSSW 4.1 6.2----1021.2- 28.6 20.7----
2024-06-20 05:30 pm SW 4.1 6.2----1021.2- 28.7 20.7----
2024-06-20 05:24 pmSSW 4.1 6.7----1021.1- 28.7 20.7----
2024-06-20 05:18 pmSSW 3.6 5.7----1021.3- 28.7 20.7----
2024-06-20 05:12 pm SW 4.1 6.2----1021.3- 29.0 21.0----
2024-06-20 05:06 pmSSW 5.1 6.7----1021.3- 29.0 21.0----
2024-06-20 05:00 pmSSW 5.1 7.2----1021.4 -1.7 29.1 20.9----
2024-06-20 04:54 pmSSW 4.6 7.2----1021.4- 29.1 21.1----
2024-06-20 04:48 pm SW 5.1 6.7----1021.5- 29.0 20.8----
2024-06-20 04:42 pmSSW 4.1 6.2----1021.6- 28.9 20.5----
2024-06-20 04:36 pmSSW 5.1 7.2----1021.7- 29.0 21.1----
2024-06-20 04:30 pmSSW 4.6 6.7----1021.7- 29.1 20.6----
2024-06-20 04:24 pmSSW 4.1 6.2----1021.7- 29.1 20.6----
2024-06-20 04:18 pmSSW 3.6 6.2----1021.7- 29.3 20.5----
2024-06-20 04:12 pm S 4.1 6.2----1021.7- 29.3 20.9----
2024-06-20 04:06 pm S 4.1 6.7----1021.7- 29.2 20.7----
2024-06-20 04:00 pm S 4.1 5.7----1021.8 -1.9 29.1 20.4----
2024-06-20 03:54 pm S 4.1 5.7----1021.8- 29.4 20.4----
2024-06-20 03:48 pm S 4.1 5.1----1021.8- 29.3 20.5----
2024-06-20 03:42 pm S 3.6 5.1----1021.9- 29.1 20.6----
2024-06-20 03:36 pmSSW 4.1 6.2----1021.9- 29.1 20.6----
2024-06-20 03:30 pmSSW 3.6 5.7----1022.0-- 21.0----
2024-06-20 03:24 pmSSW 3.6 5.1----1022.1-- 20.0----
2024-06-20 03:18 pmSSW 4.1 4.6----1022.2- 29.2 20.2----
2024-06-20 03:12 pmSSW 3.1 4.6----1022.3- 28.9 20.2----
2024-06-20 03:06 pmSSW 3.6 5.7----1022.5- 28.9 20.5----
2024-06-20 03:00 pmSSW 3.6 5.7----1022.5 -1.8 28.5 19.6----
2024-06-20 02:54 pmSSW 4.1 5.7----1022.6- 28.0 20.0----
2024-06-20 02:48 pmSSW 3.6 6.2----1022.7- 28.3 19.9----
2024-06-20 02:42 pm S 3.6 4.6----1022.9- 28.2 19.7----
2024-06-20 02:36 pmSSW 4.1 5.1----1022.9- 28.4 20.8----
2024-06-20 02:30 pmSSW 4.6 6.2----1022.9- 28.4 19.5----
2024-06-20 02:24 pmSSW 4.1 5.7----1023.0- 28.6 19.2----
2024-06-20 02:18 pmSSW 4.1 6.2----1023.0- 28.2 19.0----
2024-06-20 02:12 pmSSW 4.1 5.7----1022.9- 28.3 19.3----
2024-06-20 02:06 pmSSW 4.1 5.7----1023.1- 28.4 19.3----
2024-06-20 02:00 pm S 4.1 6.2----1023.1 -1.4 28.2 18.9----
2024-06-20 01:54 pmSSW 4.1 5.7----1023.1- 28.3 19.0----
2024-06-20 01:48 pm S 4.1 6.2----1023.2- 28.2 19.1----
2024-06-20 01:42 pmSSW 4.1 6.2----1023.3- 28.3 19.0----
2024-06-20 01:36 pmSSW 4.1 6.2----1023.3- 28.4 19.4----
2024-06-20 01:30 pmSSW 4.6 6.2----1023.5- 28.2 18.9----
2024-06-20 01:24 pmSSW 4.6 5.7----1023.5- 28.0 19.0----
2024-06-20 01:18 pmSSW 4.6 6.2----1023.5- 27.7 19.0----
2024-06-20 01:12 pmSSW 4.6 5.7----1023.6- 27.6 19.0----
2024-06-20 01:06 pmSSW 4.6 6.7----1023.7- 27.5 19.1----
2024-06-20 01:00 pmSSW 5.7 6.7----1023.7 -0.7 27.4 18.7----
2024-06-20 12:54 pmSSW 5.1 7.2----1023.8- 27.6 18.7----
2024-06-20 12:48 pmSSW 4.6 6.7----1023.8- 27.9 18.6----
2024-06-20 12:42 pmSSW 5.7 6.7----1023.8- 27.8 18.8----
2024-06-20 12:36 pmSSW 4.6 6.7----1023.9- 27.9 18.9----
2024-06-20 12:30 pmSSW 3.6 5.7----1024.0- 27.8 19.0----
2024-06-20 12:24 pm SW 3.6 5.7----1024.1- 27.9 19.6----
2024-06-20 12:18 pmSSW 4.6 6.2----1024.1- 27.7 18.5----
2024-06-20 12:12 pmSSW 4.1 5.7----1024.1- 27.6 18.8----
2024-06-20 12:06 pm SW 3.6 5.7----1024.2- 27.6 18.8----
2024-06-20 12:00 pmSSW 3.6 6.7----1024.3 +0.0 27.1 18.8----
2024-06-20 11:54 amSSW 3.6 5.7----1024.3- 27.1 18.8----
2024-06-20 11:48 am SW 4.6 6.2----1024.3- 27.2 18.8----
2024-06-20 11:42 amSSW 4.6 6.2----1024.4- 27.2 18.7----
2024-06-20 11:36 am SW 3.6 5.7----1024.4- 27.0 18.7----
2024-06-20 11:30 amSSW 3.1 4.6----1024.4- 26.2 18.7----
2024-06-20 11:24 amSSW 4.1 5.1----1024.4- 26.5 19.2----
2024-06-20 11:18 am SW 4.1 6.2----1024.4- 26.3 19.2----
2024-06-20 11:12 amSSW 3.6 6.2----1024.3- 26.2 18.8----
2024-06-20 11:06 am SW 4.6 6.2----1024.4- 25.9 18.9----
2024-06-20 11:00 am SW 4.6 6.7----1024.5 +0.0 25.8 18.9----
2024-06-20 10:54 am SW 3.6 6.7----1024.4- 25.7 19.3----
2024-06-20 10:48 am SW 3.6 5.7----1024.4- 25.5-----
2024-06-20 10:42 amSSW 4.1 5.1----1024.3- 25.1-----
2024-06-20 10:36 amSSW 3.6 5.7----1024.4- 24.9-----
2024-06-20 10:30 am SW 3.1 5.7----1024.3- 25.0 19.0----
2024-06-20 10:24 amSSW 4.6 5.7----1024.4- 24.5 18.8----
2024-06-20 10:18 amSSW 3.6 6.2----1024.5- 24.4 18.9----
2024-06-20 10:12 am S 3.1 5.1----1024.5- 24.1 18.4----
2024-06-20 10:06 amSSW 4.6 5.7----1024.4- 23.9 18.4----
2024-06-20 10:00 am SW 3.6 5.1----1024.4 +0.0 23.8 18.3----
2024-06-20 09:54 am SW 4.1 5.1----1024.5- 23.6 18.6----
2024-06-20 09:48 amSSW 4.1 5.7----1024.5- 23.4 18.5----
2024-06-20 09:42 am SW 4.1 5.1----1024.4- 23.3 18.3----
2024-06-20 09:36 amSSW 3.6 6.2----1024.4- 23.0 18.5----
2024-06-20 09:30 am SW 5.1 6.2----1024.3- 22.8 18.6----
2024-06-20 09:24 am SW 5.1 6.2----1024.3- 22.8 18.6----
2024-06-20 09:18 am SW 4.1 5.7----1024.3- 22.8 18.7----
2024-06-20 09:12 am SW 4.1 5.7----1024.3- 22.7 18.4----
2024-06-20 09:06 am SW 3.6 5.1----1024.4- 22.7 18.8----
2024-06-20 09:00 amSSW 4.1 5.1----1024.3 +0.0 22.3 19.0----
2024-06-20 08:54 amSSW 4.1 5.1----1024.3- 22.4 18.9----
2024-06-20 08:48 am S 4.1 5.1----1024.4- 22.4 19.3----
2024-06-20 08:42 amSSW 3.6 4.1----1024.4- 22.5 19.2----
2024-06-20 08:36 am SW 3.1 4.6----1024.4- 22.7 19.2----
2024-06-20 08:30 amSSW 2.6 4.6----1024.4- 22.5 19.4----
2024-06-20 08:24 amSSW 3.1 4.1----1024.5- 22.5 19.3----
2024-06-20 08:18 am S 3.1 4.1----1024.5- 22.3 19.5----
2024-06-20 08:12 amSSW 3.6 4.1----1024.5- 22.2 19.7----
2024-06-20 08:06 am S 2.6 4.1----1024.5- 22.3 19.6----
2024-06-20 08:00 amSSW 3.1 4.1----1024.5 +0.6 22.1 19.7----
2024-06-20 07:54 amSSW 3.6 4.1----1024.4- 22.1 19.5----
2024-06-20 07:48 amSSW 3.1 3.6----1024.3- 22.2 19.6----
2024-06-20 07:42 amSSW 3.1 4.6----1024.3- 22.0 19.5----
2024-06-20 07:36 am S 3.1 3.6----1024.2- 22.2 19.7----
2024-06-20 07:30 amSSW 2.1 3.1----1024.3- 22.7 19.8----
2024-06-20 07:24 amWSW 2.1 3.6----1024.4- 23.1 20.0----
2024-06-20 07:18 am W 2.1 2.6----1024.4- 23.1 20.2----
2024-06-20 07:12 am W 1.5 3.1----1024.4- 22.9 19.9----
2024-06-20 07:06 am SW 2.1 4.1----1024.4- 22.5 20.0----
2024-06-20 07:00 amWSW 2.6 4.1----1024.3 +0.0 22.5 19.8----
2024-06-20 06:54 amWSW 2.1 4.1----1024.3- 22.3 19.9----
2024-06-20 06:48 amWSW 2.1 4.1----1024.3- 22.3 19.8----
2024-06-20 06:42 am SW 2.6 3.6----1024.2- 22.1 19.9----
2024-06-20 06:36 am SW 2.6 4.6----1024.2- 21.9 20.0----
2024-06-20 06:30 amWSW 3.6 4.6----1024.2- 21.8 20.3----
2024-06-20 06:24 am SW 2.6 4.6----1024.2- 21.7 20.1----
2024-06-20 06:18 am SW 3.1 4.1----1024.3- 21.5 20.2----
2024-06-20 06:12 am SW 2.6 3.6----1024.3- 21.6 19.9----
2024-06-20 06:06 am SW 3.1 4.6----1024.2- 21.7 21.1----
2024-06-20 06:00 am SW 2.6 3.6----1024.2 +0.0 21.7 20.4----
2024-06-20 05:54 am SW 1.5 2.6----1024.2- 21.7 20.4----
2024-06-20 05:48 am SW 2.1 2.6----1024.2- 21.6 20.2----
2024-06-20 05:42 am SW 1.0 2.6----1024.2- 21.6 20.2----
2024-06-20 05:36 amWSW 1.5 3.1----1024.2- 21.6 20.5----
2024-06-20 05:30 amWSW 1.5 2.6----1024.1- 21.6 20.7----
2024-06-20 05:24 amWSW 2.6 4.1----1024.1- 21.6 20.5----
2024-06-20 05:18 am SW 1.5 3.1----1024.0- 21.6 20.3----
2024-06-20 05:12 amWSW 2.1 3.1----1023.9- 21.6 20.3----
2024-06-20 05:06 amWSW 2.6 3.6----1023.9- 21.6 20.0----
2024-06-20 05:00 amWSW 2.6 4.1----1023.9 -0.3 21.6 20.0----
2024-06-20 04:54 amWSW 1.0 2.6----1023.9- 21.7 20.0----
2024-06-20 04:48 amWSW 2.1 2.6----1023.9- 21.6 20.1----
2024-06-20 04:42 am SW 2.1 3.1----1024.1- 21.6 20.2----
2024-06-20 04:36 am- 0.0 2.6----1024.1- 21.5 20.3----
2024-06-20 04:30 am SW 1.5 3.1----1024.1- 21.4 20.2----
2024-06-20 04:24 am SW 2.1 2.6----1024.1- 21.3 20.4----
2024-06-20 04:18 am SW 2.1 3.1----1024.1- 21.4 20.5----
2024-06-20 04:12 amSSW 2.1 2.6----1024.1- 21.4 20.3----
2024-06-20 04:06 am SW 1.5 2.6----1024.2- 21.5 20.2----
2024-06-20 04:00 am SW 2.1 2.6----1024.1 -0.4 21.4 20.2----
2024-06-20 03:54 am SW 1.5 2.6----1024.2- 21.4 20.1----
2024-06-20 03:48 am SW 2.1 3.6----1024.1- 21.4 20.1----
2024-06-20 03:42 am SW 2.6 3.1----1024.1- 21.4 20.1----
2024-06-20 03:36 am SW 2.6 3.6----1024.0- 21.4 20.1----
2024-06-20 03:30 am SW 2.1 3.1----1024.1- 21.4 20.0----
2024-06-20 03:24 am SW 2.1 3.1----1023.9- 21.4 20.0----
2024-06-20 03:18 am SW 2.1 3.1----1024.0- 21.4 19.9----
2024-06-20 03:12 am SW 2.1 3.1----1024.0- 21.5 19.9----
2024-06-20 03:06 am SW 2.1 2.6----1024.1- 21.4 19.8----
2024-06-20 03:00 am SW 1.5 2.6----1024.1 -0.8 21.4 19.7----
2024-06-20 02:54 am SW 2.1 3.1----1024.1- 21.5 19.6----
2024-06-20 02:48 am SW 2.1 3.1----1024.2- 21.6 19.4----
2024-06-20 02:42 am SW 2.1 3.1----1024.1- 21.6 19.3----
2024-06-20 02:36 am SW 1.5 2.6----1024.2- 21.6 19.2----
2024-06-20 02:30 amSSW 1.5 2.6----1024.2- 21.7 19.2----
2024-06-20 02:24 am SW 2.1 3.1----1024.3- 21.8 19.2----
2024-06-20 02:18 am SW 2.6 3.6----1024.3- 21.7 19.2----
2024-06-20 02:12 am SW 2.6 3.6----1024.3- 21.8 19.1----
2024-06-20 02:06 am SW 2.6 3.6----1024.4- 21.9 19.2----
2024-06-20 02:00 am SW 2.6 3.1----1024.2 -1.1 22.0 19.2----
2024-06-20 01:54 am SW 1.5 2.6----1024.2- 22.1 19.2----
2024-06-20 01:48 am SW 2.1 3.1----1024.3- 22.2 19.3----
2024-06-20 01:42 am SW 1.5 2.6----1024.4- 22.3 19.3----
2024-06-20 01:36 am W 1.5 2.6----1024.4- 22.3 19.2----
2024-06-20 01:30 am SW 2.1 2.6----1024.4- 22.3 19.2----
2024-06-20 01:24 am SW 1.5 2.6----1024.4- 22.3 19.3----
2024-06-20 01:18 am SW 2.1 2.6----1024.5- 22.3 19.3----
2024-06-20 01:12 am SW 1.5 2.6----1024.5- 22.2 19.3----
2024-06-20 01:06 am SW 2.1 2.6----1024.6- 22.1 19.3----
2024-06-20 01:00 amSSW 1.5 2.6----1024.5 -0.8 22.0 19.3----
2024-06-20 12:54 amSSW 2.1 2.6----1024.6- 22.2 19.3----
2024-06-20 12:48 am SW 2.1 3.1----1024.6- 22.3 19.3----
2024-06-20 12:42 am SW 2.1 3.6----1024.7- 22.3 19.3----
2024-06-20 12:36 am SW 2.1 3.6----1024.8- 22.4 19.3----
2024-06-20 12:30 am SW 2.6 4.1----1024.9- 22.4 19.4----
2024-06-20 12:24 am SW 2.6 4.1----1024.9- 22.5 19.5----
2024-06-20 12:18 am SW 3.1 4.6----1024.8- 22.5 19.5----
2024-06-20 12:12 am SW 2.6 3.6----1024.7- 22.4 19.5----
2024-06-20 12:06 amSSW 1.5 2.6----1024.9- 22.4 19.5----
2024-06-20 12:00 am SW 2.6 3.1----1024.9 -0.3 22.4 19.5----
2024-06-19 11:54 pm SW 2.1 3.6----1025.0- 22.4 19.5----
2024-06-19 11:48 pm SW 2.6 3.1----1025.0- 22.5 19.6----
2024-06-19 11:42 pm SW 2.6 3.6----1025.0- 22.6 19.7----
2024-06-19 11:36 pm SW 2.6 3.6----1025.1- 22.7 19.7----
2024-06-19 11:30 pm SW 3.1 4.1----1025.2- 22.8 19.7----
2024-06-19 11:24 pm SW 2.6 3.6----1025.2- 22.8 19.6----
2024-06-19 11:18 pm SW 2.6 3.6----1025.2- 22.8 19.6----
2024-06-19 11:12 pm SW 2.6 4.1----1025.2- 22.8 19.7----
2024-06-19 11:06 pm SW 3.1 4.1----1025.3- 22.9 19.7----
2024-06-19 11:00 pm SW 3.1 4.6----1025.3 +0.3 23.0 19.8----
2024-06-19 10:54 pm SW 3.1 4.6----1025.3- 23.1 19.8----